www.pogodaiklimat.ru

Погода и климат >> Архив погоды >> Гана >> Навронго


ПОГОДА в Навронго

  • Прогноз погоды в Навронго
  • Монитор погоды в Навронго

АРХИВ ПОГОДЫ в Навронго

Время (UTC), дата Ветер
(напр.,м/с)
 
Видим.   Явления Облачность Т
(С)
Тd
(С)
f
(%)
Тe
(С)
Тes
(С)
Комфортность P
(гПа)
Po
(гПа)
Тmin
(С)
Tmax
(С)
R
(мм)
R24
(мм)
S
(см)
00 15.09 ЮЗ 1 12 км зарница {гроза, дождь} 9/6 360 м
[Cb cap Ac trans]
+22.5 +21.4 94 +30 +30 очень
душно
1014.1 990.6 60
06 15.09 ЮЗ 1 12 км 9/3 360 м
[Sc Ac trans]
+23.0 +22.3 96 +31 +31 очень
душно
1012.7 989.3 +22.0 20
09 15.09 ЮЗ 1 12 км 9/0
[Ac trans]
+25.0 +23.3 90 +33 +39 очень
душно
1014.2 990.9
12 15.09 СВ 2 12 км 9/9 360 м
[Cb cap]
+28.5 +23.2 73 +38 +41 очень
душно
1014.6 991.5
15 15.09 штиль 0 12 км в посл. час дождь 9/9 360 м
[Sc]
+22.0 +21.0 94 +28 +30 душно 1014.1 990.5
18 15.09 штиль 0 12 км {дождь} 9/0
[Ac trans]
+23.0 +21.3 90 +31 +31 очень
душно
1011.6 988.2 +28.6
21 15.09 ЮВ 1 12 км 9/0
[Ac trans]
+23.0 +22.0 94 +31 +31 очень
душно
1012.6 989.2
00 16.09 СЗ 1 12 км 9/0
[Ac trans]
+23.0 +22.0 94 +31 +31 очень
душно
1013.2 989.7 13
03 16.09 штиль 0 12 км 9/0
[Ac trans]
+23.1 +22.1 94 +31 +31 очень
душно
1012.2 988.8
06 16.09 штиль 0 12 км 9/0
[Ac trans]
+23.0 +22.2 95 +31 +31 очень
душно
1013.0 989.5 +22.0 13
09 16.09 СВ 2 12 км 8/0
[Ac trans]
+25.5 +23.4 88 +34 +40 очень
душно
1015.3 992.0
12 16.09 ЮЗ 2 12 км 6/3 450 м
[Cu hum Ac trans]
+29.2 +24.1 74 +41 +53 опасность
перегрева
1013.2 990.2
15 16.09 ЮВ 2 12 км 5/5 540 м
[Cu med, cong]
+30.6 +23.8 67 +42 +48 опасность
перегрева
1010.9 988.1
18 16.09 ЮЗ 1 12 км 4/0
[Ac trans Ci fib]
+29.6 +25.4 78 +43 +43 опасность
перегрева
1008.9 986.0 +31.2
21 16.09 штиль 0 12 км 4/0
[Ci fib]
+27.0 +25.3 90 +39 +39 очень
душно
1011.6 988.5
06 17.09 СВ 1 12 км 9/0
[Ac trans]
+24.5 +23.5 94 +33 +33 очень
душно
1012.3 989.0 +23.0
12 17.09 Ю 2 9000 м гроза, ливневой дождь 9/5 360 м
[Cb cap Ac trans]
+22.7 +21.8 95 +30 +36 очень
душно
1014.0 990.5 31
15 17.09 ЮЗ 1 12 км {гроза, дождь} 8/3 360 м
[Sc Ac trans]
+25.0 +22.9 88 +33 +38 очень
душно
1016.2 992.8
00 18.09 СВ 1 12 км 8/0
[Ac trans]
+23.0 +22.5 97 +32 +32 очень
душно
1014.0 990.5
09 18.09 ЮЗ 2 12 км 8/3 360 м
[Sc Ac trans]
+24.8 +23.4 92 +33 +38 очень
душно
1015.4 992.0
12 18.09 СЗ 2 12 км 6/3 500 м
[Cu med, cong Ac trans]
+29.5 +24.3 74 +41 +53 опасность
перегрева
1014.6 991.6
15 18.09 СЗ 2 12 км 5/5 540 м
[Cu med, cong]
+31.5 +23.4 62 +42 +48 опасность
перегрева
1011.2 988.4
18 18.09 СЗ 1 12 км 6/0
[Ac trans]
+30.5 +23.9 68 +42 +42 опасность
перегрева
1009.6 986.8 +31.5
21 18.09 СЗ 1 12 км 4/0
[Ac trans]
+27.0 +24.6 87 +38 +38 очень
душно
1012.5 989.4
00 19.09 СВ 1 12 км 5/0
[Ac trans]
+26.0 +24.3 90 +36 +36 очень
душно
1012.3 989.1
09 19.09 ЮЗ 1 18 км {гроза, дождь} 9/5 360 м
[Sc Ac trans]
+23.0 +21.7 92 +31 +34 очень
душно
1015.8 992.3
12 19.09 ЮЗ 2 12 км {гроза, дождь} 9/4 360 м
[Cu Sc Ac trans]
+26.3 +22.6 80 +35 +41 очень
душно
1014.6 991.4 2
15 19.09 ЮЗ 5 12 км 8/5 360 м
[Cu Sc Ac trans]
+29.2 +24.5 76 +41 +43 опасность
перегрева
1011.5 988.6
21 19.09 СВ 1 12 км 9/0
[Ac trans]
+25.0 +23.3 90 +33 +33 очень
душно
1013.1 989.8
00 20.09 СВ 1 12 км 9/0
[Ac trans]
+24.5 +22.8 90 +32 +32 очень
душно
1013.6 990.2
06 20.09 СВ 1 12 км 9/5 360 м
[Sc Ac trans]
+24.0 +23.3 96 +32 +32 очень
душно
1013.9 990.5 +23.0 4
09 20.09 СВ 1 12 км слаб. дождь 9/4 360 м
[Sc Ac trans]
+23.5 +22.5 94 +31 +34 очень
душно
1015.3 991.8
12 20.09 ЮВ 1 12 км {дождь} 8/3 480 м
[Cu hum Ac trans]
+21.5 +25.0 100 +28 +38 очень
душно
1013.3 989.7 1
15 20.09 ЮВ 2 12 км 5/3 480 м
[Cu hum Ac trans]
+32.5 +23.0 57 +43 +49 опасность
перегрева
1011.5 988.8
21 20.09 СВ 1 12 км 9/0
[Ac trans]
+27.6 +25.6 89 +41 +41 опасность
перегрева
1013.6 990.5
09 21.09 ЮЗ 1 12 км 5/1 540 м
[Cu hum Ac trans]
+28.5 +24.7 80 +41 +48 опасность
перегрева
1014.6 991.5
12 21.09 ЮЗ 3 12 км 9/4 540 м
[Cu med, cong Ac trans]
+31.5 +24.9 68 +45 +50 опасность
перегрева
1014.1 991.3
15 21.09 ЮЗ 1 12 км 9/4 540 м
[Cu med, cong Ac trans]
+32.2 +24.8 65 +45 +50 опасность
перегрева
1011.9 989.2

 

Местоположение метеостанции Навронго (Гана): широта 10.90 долгота -1.10 высота над уровнем моря 203 м.

В архиве по умолчанию представлена погода в Навронго за последнюю неделю. Архивные данные за месяц целиком и за предыдущие месяцы, начиная с января 2011 года, Вы можете получить, выбрав интересующий диапазон дат из раскрывающегося списка и нажав кнопку "Ввод!".


*Определитесь, кто Вы:
робот инопланетянин человек

Внимание! Время в таблицах - всемирное. Для получения местного времени необходимо прибавить поправку, которая равна 1 ч.

Смотрите также архив погоды в соседних городах и на ближайших метеорологических станциях:

Погода в По (Буркина-Фасо) (28 км)
Погода в Тамале (Гана) (158 км)
Погода в Дапаоне (Того) (158 км)
Погода в Уагадугу (Буркина-Фасо) (168 км)
Погода в Ва (Гана) (180 км)
Погода в Манго (Того) (181 км)
Погода в Йенди (Гана) (200 км)
Погода в Фада-Нгурме (Буркина-Фасо) (204 км)
Погода в Боромо (Буркина-Фасо) (221 км)
Погода в Гауа (Буркина-Фасо) (236 км)

Пояснения к столбцам:

Ветер - указаны скорость ветра в м/с - средняя за 10 мин, порывы в срок и между сроками (в фигурных скобках) и направление, откуда дует ветер: С - северный, СВ - северо-восточный, В - восточный, ЮВ - юго-восточный, Ю - южный, ЮЗ - юго-западный, З - западный, СЗ - северо-западный.
Видимость - горизонтальная дальность видимости в метрах или километрах. При видимости от 1 до 10 км при отсутствии осадков обычно наблюдается дымка, при ухудшении видимости до 1 км и менее - туман. В сухую погоду видимость может ухудшаться дымом, пылью или мглою.
Явления - указаны атмосферные явления, наблюдавшиеся в срок или в последний час перед сроком; фигурными скобками обозначены явления, наблюдавшиеся между сроками (за 1-3 часа до срока); квадратными скобками обозначены град или гололедные отложения с указанием их диаметра в мм.
Облачность - указаны через наклонную черту общая и нижняя облачность в баллах и высота нижней границы облаков в метрах; квадратными скобками обозначены формы облаков: Ci - перистые, Cs - перисто-слоистые, Cc - перисто-кучевые, Ac - высококучевые, As - высокослоистые, Sc - слоисто-кучевые, Ns - слоисто-дождевые, Cu - кучевые, Cb - кучево-дождевые. Подробнее классификацию облаков см. в Атласе облаков (PDF).
T - Температура воздуха - температура, измеренная на высоте 2 м над землей.
Td - Температура точки росы - температура, при понижении до которой содержащийся в воздухе водяной пар достигнет насыщения.
f - Относительная влажность воздуха - влажноcть воздуха, измеренная на высоте 2 м над землей.
Te - Эффективная температура - температура, которую ощущает одетый по сезону человек в тени. Характеристика душности погоды. При расчете учитывается влияние влажности воздуха и скорости ветра на теплоощущения человека.
Tes - Эффективная температура на солнце - температура, которую ощущает человек, с поправкой на солнечный нагрев. Характеристика знойности погоды. Зависит от высоты солнца над горизонтом, облачности и скорости ветра. Ночью, в пасмурную погоду, а также при ветре 12 м/с и более поправка равна нулю.
P - Атмосферное давление - приведенное к уровню моря атмосферное давление.
Po - Атмосферное давление - измеренное на уровне метеостанции атмосферное давление.
Tmin - Минимальная температура - минимум температуры воздуха на высоте 2 м над землей.
Tmax - Максимальная температура - максимум температуры воздуха на высоте 2 м над землей.
R - Количество осадков - Количество выпавших осадков за период времени, мм. При наведении курсора мыши на число - период времени, за который выпало указанное количество осадков.
R24 - Количество осадков - Количество выпавших осадков за 24 часа, мм.
S - Снежный покров - Высота снежного покрова, см. При наведении курсора мыши на число - состояние снежного покрова и степень покрытия местности в баллах.